| time (UTC) | temp C | wind direction | speed KPH | gust KPH | rain 1hr cm | rain 24hr cm | rain mn cm | humidity % | barometer mb |
| 20260505004027 | 16 | 196 | 8.0 | 16.1 | 0.00 | 0.00 | 0.00 | 50 | 1001.8 |
| 20260505003527 | 17 | 221 | 8.0 | 17.7 | 0.00 | 0.00 | 0.00 | 49 | 1001.6 |
| 20260505003027 | 17 | 223 | 8.0 | 17.7 | 0.00 | 0.00 | 0.00 | 48 | 1001.6 |
| 20260505002526 | 17 | 226 | 9.7 | 19.3 | 0.00 | 0.00 | 0.00 | 48 | 1001.5 |
| 20260505002028 | 17 | 201 | 11.3 | 19.3 | 0.00 | 0.00 | 0.00 | 47 | 1001.6 |
| 20260505001529 | 17 | 234 | 9.7 | 19.3 | 0.00 | 0.00 | 0.00 | 47 | 1001.5 |
| 20260505001329 | 17 | 245 | 9.7 | 16.1 | 0.00 | 0.00 | 0.00 | 46 | 1001.4 |
| 20260505000526 | 17 | 245 | 8.0 | 17.7 | 0.00 | 0.00 | 0.00 | 46 | 1001.4 |
| 20260505000027 | 17 | 207 | 8.0 | 17.7 | 0.00 | 0.00 | 0.00 | 46 | 1001.4 |
| 20260504235527 | 17 | 240 | 8.0 | 14.5 | 0.00 | 0.00 | 0.00 | 46 | 1001.3 |
| 20260504235026 | 17 | 220 | 8.0 | 14.5 | 0.00 | 0.00 | 0.00 | 45 | 1001.3 |
| 20260504234528 | 17 | 239 | 9.7 | 19.3 | 0.00 | 0.00 | 0.00 | 45 | 1001.3 |
| 20260504234029 | 18 | 220 | 11.3 | 20.9 | 0.00 | 0.00 | 0.00 | 45 | 1001.2 |
| 20260504233530 | 18 | 215 | 9.7 | 19.3 | 0.00 | 0.00 | 0.00 | 45 | 1001.2 |
| 20260504233024 | 18 | 224 | 11.3 | 19.3 | 0.00 | 0.00 | 0.00 | 45 | 1001.2 |
| 20260504232517 | 18 | 220 | 9.7 | 27.4 | 0.00 | 0.00 | 0.00 | 44 | 1001.2 |
| 20260504232011 | 18 | 224 | 9.7 | 27.4 | 0.00 | 0.00 | 0.00 | 44 | 1001.1 |
| 20260504231817 | 18 | 226 | 9.7 | 19.3 | 0.00 | 0.00 | 0.00 | 44 | 1001.1 |
| 20260504231006 | 18 | 159 | 11.3 | 22.5 | 0.00 | 0.00 | 0.00 | 44 | 1001.1 |
| 20260504230800 | 18 | 226 | 11.3 | 22.5 | 0.00 | 0.00 | 0.00 | 43 | 1001.0 |
| 20260504230006 | 18 | 198 | 11.3 | 24.1 | 0.00 | 0.00 | 0.00 | 44 | 1001.0 |
| 20260504225502 | 18 | 239 | 12.9 | 30.6 | 0.00 | 0.00 | 0.00 | 43 | 1000.9 |
| 20260504225002 | 18 | 209 | 12.9 | 30.6 | 0.00 | 0.00 | 0.00 | 42 | 1000.9 |
| 20260504224502 | 19 | 206 | 11.3 | 24.1 | 0.00 | 0.00 | 0.00 | 43 | 1000.9 |
| 20260504224002 | 19 | 198 | 9.7 | 19.3 | 0.00 | 0.00 | 0.00 | 43 | 1000.9 |
| 20260504223759 | 19 | 218 | 11.3 | 29.0 | 0.00 | 0.00 | 0.00 | 42 | 1000.8 |
| 20260504223003 | 19 | 219 | 12.9 | 29.0 | 0.00 | 0.00 | 0.00 | 43 | 1000.8 |
| 20260504222502 | 19 | 213 | 11.3 | 25.7 | 0.00 | 0.00 | 0.00 | 42 | 1000.9 |
| 20260504222003 | 20 | 222 | 11.3 | 25.7 | 0.00 | 0.00 | 0.00 | 42 | 1000.9 |
| 20260504221502 | 20 | 207 | 11.3 | 24.1 | 0.00 | 0.00 | 0.00 | 42 | 1000.9 |
| 20260504221303 | 20 | 203 | 11.3 | 24.1 | 0.00 | 0.00 | 0.00 | 41 | 1000.9 |
| 20260504220501 | 20 | 199 | 11.3 | 25.7 | 0.00 | 0.00 | 0.00 | 41 | 1000.9 |
| 20260504220001 | 20 | 220 | 12.9 | 25.7 | 0.00 | 0.00 | 0.00 | 41 | 1000.9 |
| 20260504215502 | 20 | 193 | 12.9 | 24.1 | 0.00 | 0.00 | 0.00 | 41 | 1000.9 |
| 20260504214959 | 20 | 206 | 12.9 | 22.5 | 0.00 | 0.00 | 0.00 | 42 | 1000.9 |
| 20260504214453 | 19 | 196 | 12.9 | 29.0 | 0.00 | 0.00 | 0.00 | 42 | 1000.9 |
| 20260504213947 | 19 | 226 | 12.9 | 29.0 | 0.00 | 0.00 | 0.00 | 42 | 1001.0 |
| 20260504213441 | 19 | 245 | 14.5 | 29.0 | 0.00 | 0.00 | 0.00 | 42 | 1000.9 |
| 20260504213332 | 19 | 248 | 14.5 | 32.2 | 0.00 | 0.00 | 0.00 | 41 | 1001.0 |
| 20260504213327 | 19 | 219 | 16.1 | 32.2 | 0.00 | 0.00 | 0.00 | 42 | 1001.0 |
| 20260504211930 | 20 | 252 | 11.3 | 25.7 | 0.00 | 0.00 | 0.00 | 42 | 1001.1 |
| 20260504211431 | 20 | 225 | 12.9 | 30.6 | 0.00 | 0.00 | 0.00 | 43 | 1001.2 |
| 20260504210929 | 20 | 255 | 14.5 | 30.6 | 0.00 | 0.00 | 0.00 | 41 | 1001.2 |
| 20260504210429 | 20 | 215 | 14.5 | 29.0 | 0.00 | 0.00 | 0.00 | 41 | 1001.4 |
| 20260504205929 | 20 | 210 | 14.5 | 29.0 | 0.00 | 0.00 | 0.00 | 41 | 1001.5 |
| 20260504205432 | 20 | 233 | 12.9 | 24.1 | 0.00 | 0.00 | 0.00 | 41 | 1001.5 |
| 20260504204929 | 20 | 309 | 9.7 | 22.5 | 0.00 | 0.00 | 0.00 | 41 | 1001.5 |
| 20260504204430 | 19 | 201 | 11.3 | 22.5 | 0.00 | 0.00 | 0.00 | 43 | 1001.6 |
| 20260504203930 | 19 | 187 | 12.9 | 27.4 | 0.00 | 0.00 | 0.00 | 43 | 1001.6 |
| 20260504203430 | 19 | 252 | 12.9 | 30.6 | 0.00 | 0.00 | 0.00 | 42 | 1001.5 |
| 20260504202930 | 19 | 257 | 14.5 | 30.6 | 0.00 | 0.00 | 0.00 | 44 | 1001.7 |
| 20260504202727 | 19 | 245 | 14.5 | 33.8 | 0.00 | 0.00 | 0.00 | 42 | 1001.7 |
| 20260504201930 | 19 | 255 | 14.5 | 33.8 | 0.00 | 0.00 | 0.00 | 42 | 1001.7 |
| 20260504201430 | 19 | 215 | 14.5 | 30.6 | 0.00 | 0.00 | 0.00 | 42 | 1001.9 |
| 20260504200929 | 19 | 278 | 17.7 | 33.8 | 0.00 | 0.00 | 0.00 | 42 | 1001.9 |
| 20260504200431 | 19 | 214 | 17.7 | 38.6 | 0.00 | 0.00 | 0.00 | 42 | 1001.9 |
| 20260504195929 | 19 | 226 | 16.1 | 38.6 | 0.00 | 0.00 | 0.00 | 42 | 1001.9 |
| 20260504195726 | 19 | 204 | 14.5 | 27.4 | 0.00 | 0.00 | 0.00 | 41 | 1002.0 |
| 20260504194917 | 20 | 237 | 17.7 | 41.8 | 0.00 | 0.00 | 0.00 | 41 | 1002.0 |
| 20260504194411 | 19 | 203 | 17.7 | 41.8 | 0.00 | 0.00 | 0.00 | 43 | 1002.0 |
| 20260504193907 | 19 | 224 | 14.5 | 30.6 | 0.00 | 0.00 | 0.00 | 43 | 1002.0 |
| 20260504193407 | 19 | 233 | 14.5 | 30.6 | 0.00 | 0.00 | 0.00 | 44 | 1002.0 |
| 20260504192907 | 19 | 188 | 17.7 | 35.4 | 0.00 | 0.00 | 0.00 | 44 | 1002.1 |
| 20260504192407 | 19 | 231 | 16.1 | 35.4 | 0.00 | 0.00 | 0.00 | 43 | 1002.1 |
| 20260504191907 | 19 | 174 | 14.5 | 25.7 | 0.00 | 0.00 | 0.00 | 43 | 1002.0 |
| 20260504191407 | 18 | 195 | 16.1 | 29.0 | 0.00 | 0.00 | 0.00 | 43 | 1002.0 |
| 20260504190906 | 18 | 165 | 16.1 | 35.4 | 0.00 | 0.00 | 0.00 | 44 | 1002.2 |
| 20260504190406 | 19 | 200 | 17.7 | 35.4 | 0.00 | 0.00 | 0.00 | 42 | 1002.2 |
| 20260504185907 | 19 | 208 | 17.7 | 35.4 | 0.00 | 0.00 | 0.00 | 43 | 1002.2 |
| 20260504185407 | 19 | 223 | 16.1 | 35.4 | 0.00 | 0.00 | 0.00 | 43 | 1002.3 |
| 20260504184907 | 19 | 239 | 16.1 | 27.4 | 0.00 | 0.00 | 0.00 | 44 | 1002.3 |
| 20260504184703 | 19 | 234 | 16.1 | 30.6 | 0.00 | 0.00 | 0.00 | 43 | 1002.3 |
| 20260504183910 | 18 | 211 | 17.7 | 30.6 | 0.00 | 0.00 | 0.00 | 44 | 1002.3 |
| 20260504183409 | 18 | 210 | 17.7 | 32.2 | 0.00 | 0.00 | 0.00 | 44 | 1002.7 |
| 20260504182909 | 18 | 278 | 16.1 | 32.2 | 0.00 | 0.00 | 0.00 | 43 | 1002.6 |
| 20260504182410 | 18 | 217 | 16.1 | 32.2 | 0.00 | 0.00 | 0.00 | 44 | 1002.6 |
| 20260504181904 | 18 | 284 | 16.1 | 33.8 | 0.00 | 0.00 | 0.00 | 44 | 1002.5 |
| 20260504181658 | 18 | 229 | 16.1 | 33.8 | 0.00 | 0.00 | 0.00 | 46 | 1002.3 |
| 20260504181208 | 18 | 245 | 14.5 | 32.2 | 0.00 | 0.00 | 0.00 | 44 | 1002.6 |
| 20260504180402 | 18 | 226 | 14.5 | 29.0 | 0.00 | 0.00 | 0.00 | 46 | 1002.6 |
| 20260504175901 | 18 | 222 | 17.7 | 37.0 | 0.00 | 0.00 | 0.00 | 45 | 1002.7 |
| 20260504175513 | 18 | 226 | 16.1 | 30.6 | 0.00 | 0.00 | 0.00 | 45 | 1002.7 |
| 20260504175450 | 18 | 243 | 17.7 | 37.0 | 0.00 | 0.00 | 0.00 | 44 | 1002.6 |
| 20260504174703 | 18 | 217 | 17.7 | 38.6 | 0.00 | 0.00 | 0.00 | 44 | 1002.8 |
| 20260504173902 | 17 | 145 | 17.7 | 38.6 | 0.00 | 0.00 | 0.00 | 45 | 1002.7 |
| 20260504173402 | 17 | 259 | 14.5 | 35.4 | 0.00 | 0.00 | 0.00 | 45 | 1003.0 |
| 20260504172902 | 17 | 250 | 16.1 | 32.2 | 0.00 | 0.00 | 0.00 | 47 | 1002.9 |
| 20260504172401 | 17 | 271 | 16.1 | 37.0 | 0.00 | 0.00 | 0.00 | 44 | 1002.9 |
| 20260504171901 | 17 | 245 | 16.1 | 37.0 | 0.00 | 0.00 | 0.00 | 45 | 1003.0 |
| 20260504171402 | 17 | 239 | 17.7 | 37.0 | 0.00 | 0.00 | 0.00 | 47 | 1003.1 |
| 20260504171004 | 17 | 225 | 16.1 | 40.2 | 0.00 | 0.00 | 0.00 | 47 | 1003.2 |
| 20260504170943 | 17 | 175 | 17.7 | 40.2 | 0.00 | 0.00 | 0.00 | 45 | 1003.2 |
| 20260504160401 | 15 | 265 | 14.5 | 32.2 | 0.00 | 0.00 | 0.00 | 47 | 1003.8 |
| 20260504160201 | 15 | 193 | 11.3 | 29.0 | 0.00 | 0.00 | 0.00 | 47 | 1003.9 |
| 20260504150902 | 14 | 211 | 14.5 | 27.4 | 0.00 | 0.00 | 0.00 | 48 | 1004.3 |
| 20260504150403 | 14 | 198 | 11.3 | 27.4 | 0.00 | 0.00 | 0.00 | 47 | 1004.3 |
| 20260504140901 | 13 | 215 | 11.3 | 22.5 | 0.00 | 0.00 | 0.00 | 51 | 1004.7 |
| 20260504140402 | 12 | 225 | 11.3 | 22.5 | 0.00 | 0.00 | 0.00 | 50 | 1004.7 |
| 20260504130357 | 11 | 215 | 8.0 | 16.1 | 0.00 | 0.00 | 0.00 | 59 | 1005.0 |
| 20260504110318 | 5 | 203 | 6.4 | 14.5 | 0.00 | 0.00 | 0.00 | 70 | 1005.2 |
| 20260504100250 | 3 | 220 | 4.8 | 9.7 | 0.00 | 0.00 | 0.00 | 75 | 1005.0 |
| 20260504081243 | 3 | 201 | 6.4 | 12.9 | 0.00 | 0.00 | 0.00 | 73 | 1005.3 |
| 20260504080738 | 3 | 221 | 6.4 | 14.5 | 0.00 | 0.00 | 0.00 | 73 | 1005.2 |
| 20260504080239 | 3 | 206 | 4.8 | 14.5 | 0.00 | 0.00 | 0.00 | 73 | 1005.3 |
| 20260504070231 | 4 | 233 | 6.4 | 14.5 | 0.00 | 0.00 | 0.00 | 72 | 1005.2 |
| 20260504060203 | 6 | 155 | 3.2 | 9.7 | 0.00 | 0.00 | 0.00 | 64 | 1004.9 |
| 20260504050704 | 7 | 219 | 8.0 | 16.1 | 0.00 | 0.00 | 0.00 | 58 | 1004.7 |
| 20260504050204 | 7 | 234 | 8.0 | 14.5 | 0.00 | 0.00 | 0.00 | 58 | 1004.8 |
| 20260504045703 | 7 | 206 | 6.4 | 14.5 | 0.00 | 0.00 | 0.00 | 58 | 1004.9 |
| 20260504045204 | 7 | 228 | 6.4 | 14.5 | 0.00 | 0.00 | 0.00 | 58 | 1004.9 |
| 20260504044702 | 7 | 212 | 6.4 | 14.5 | 0.00 | 0.00 | 0.00 | 58 | 1004.8 |
| 20260504044202 | 7 | 240 | 6.4 | 12.9 | 0.00 | 0.00 | 0.00 | 58 | 1004.9 |
| 20260504043702 | 7 | 255 | 6.4 | 12.9 | 0.00 | 0.00 | 0.00 | 58 | 1004.8 |
| 20260504043202 | 7 | 240 | 6.4 | 14.5 | 0.00 | 0.00 | 0.00 | 58 | 1004.8 |
| 20260504042701 | 7 | 202 | 6.4 | 14.5 | 0.00 | 0.00 | 0.00 | 58 | 1004.8 |
| 20260504042203 | 7 | 243 | 6.4 | 12.9 | 0.00 | 0.00 | 0.00 | 58 | 1004.7 |
| 20260504041701 | 7 | 215 | 6.4 | 11.3 | 0.00 | 0.00 | 0.00 | 58 | 1004.7 |
| 20260504041201 | 7 | 221 | 4.8 | 11.3 | 0.00 | 0.00 | 0.00 | 58 | 1004.8 |
| 20260504040706 | 7 | 193 | 4.8 | 11.3 | 0.00 | 0.00 | 0.00 | 59 | 1004.7 |
| 20260504040202 | 7 | 252 | 6.4 | 11.3 | 0.00 | 0.00 | 0.00 | 58 | 1004.8 |
| 20260504035706 | 7 | 231 | 4.8 | 9.7 | 0.00 | 0.00 | 0.00 | 58 | 1004.7 |
| 20260504035204 | 7 | 243 | 4.8 | 9.7 | 0.00 | 0.00 | 0.00 | 59 | 1004.7 |
| 20260504034705 | 7 | 220 | 6.4 | 14.5 | 0.00 | 0.00 | 0.00 | 57 | 1004.8 |
| 20260504034204 | 7 | 215 | 4.8 | 14.5 | 0.00 | 0.00 | 0.00 | 58 | 1004.7 |
| 20260504033704 | 7 | 236 | 4.8 | 16.1 | 0.00 | 0.00 | 0.00 | 57 | 1004.7 |
| 20260504033508 | 7 | 236 | 4.8 | 16.1 | 0.00 | 0.00 | 0.00 | 57 | 1004.6 |
| 20260504032703 | 7 | 227 | 4.8 | 11.3 | 0.00 | 0.00 | 0.00 | 57 | 1004.7 |
| 20260504032204 | 7 | 219 | 4.8 | 11.3 | 0.00 | 0.00 | 0.00 | 56 | 1004.7 |
| 20260504032013 | 7 | 220 | 6.4 | 12.9 | 0.00 | 0.00 | 0.00 | 56 | 1004.7 |
| 20260504031205 | 7 | 223 | 6.4 | 12.9 | 0.00 | 0.00 | 0.00 | 55 | 1004.7 |
| 20260504030704 | 7 | 152 | 6.4 | 11.3 | 0.00 | 0.00 | 0.00 | 56 | 1004.6 |
| 20260504030203 | 7 | 231 | 6.4 | 11.3 | 0.00 | 0.00 | 0.00 | 56 | 1004.7 |
| 20260504025704 | 7 | 238 | 6.4 | 16.1 | 0.00 | 0.00 | 0.00 | 56 | 1004.7 |
| 20260504025203 | 7 | 248 | 6.4 | 16.1 | 0.00 | 0.00 | 0.00 | 57 | 1004.6 |
| 20260504024705 | 7 | 252 | 6.4 | 14.5 | 0.00 | 0.00 | 0.00 | 57 | 1004.6 |
| 20260504024206 | 7 | 223 | 6.4 | 14.5 | 0.00 | 0.00 | 0.00 | 57 | 1004.6 |
| 20260504023704 | 7 | 226 | 6.4 | 12.9 | 0.00 | 0.00 | 0.00 | 59 | 1004.7 |
| 20260504023203 | 7 | 230 | 4.8 | 12.9 | 0.00 | 0.00 | 0.00 | 58 | 1004.7 |
| 20260504022704 | 7 | 229 | 4.8 | 11.3 | 0.00 | 0.00 | 0.00 | 59 | 1004.7 |
| 20260504022204 | 7 | 240 | 4.8 | 11.3 | 0.00 | 0.00 | 0.00 | 59 | 1004.7 |
| 20260504021704 | 7 | 226 | 4.8 | 11.3 | 0.00 | 0.00 | 0.00 | 60 | 1004.7 |
| 20260504021205 | 6 | 283 | 4.8 | 11.3 | 0.00 | 0.00 | 0.00 | 60 | 1004.7 |
| 20260504020818 | 6 | 190 | 4.8 | 11.3 | 0.00 | 0.00 | 0.00 | 62 | 1004.8 |
| 20260504020750 | 6 | 223 | 4.8 | 9.7 | 0.00 | 0.00 | 0.00 | 61 | 1004.7 |
| 20260504020009 | 6 | 223 | 4.8 | 11.3 | 0.00 | 0.00 | 0.00 | 63 | 1004.7 |
| 20260504015203 | 6 | 226 | 4.8 | 11.3 | 0.00 | 0.00 | 0.00 | 63 | 1004.6 |
| 20260504014702 | 6 | 226 | 3.2 | 11.3 | 0.00 | 0.00 | 0.00 | 64 | 1004.6 |
| 20260504014203 | 6 | 190 | 3.2 | 6.4 | 0.00 | 0.00 | 0.00 | 66 | 1004.6 |
| 20260504013703 | 6 | 238 | 3.2 | 8.0 | 0.00 | 0.00 | 0.00 | 66 | 1004.4 |
| 20260504013322 | 6 | 258 | 3.2 | 11.3 | 0.00 | 0.00 | 0.00 | 65 | 1004.4 |
| 20260504013256 | 6 | 206 | 3.2 | 11.3 | 0.00 | 0.00 | 0.00 | 65 | 1004.3 |
| 20260504012311 | 6 | 259 | 3.2 | 4.8 | 0.00 | 0.00 | 0.00 | 65 | 1004.4 |
| 20260504012249 | 6 | 283 | 3.2 | 8.0 | 0.00 | 0.00 | 0.00 | 66 | 1004.9 |
| 20260504011201 | 6 | 236 | 3.2 | 4.8 | 0.00 | 0.00 | 0.00 | 63 | 1004.4 |
| 20260504010701 | 7 | 253 | 3.2 | 6.4 | 0.00 | 0.00 | 0.00 | 64 | 1004.4 |
| 20260504010203 | 7 | 238 | 3.2 | 6.4 | 0.00 | 0.00 | 0.00 | 61 | 1004.3 |
| 20260504005701 | 7 | 226 | 3.2 | 6.4 | 0.00 | 0.00 | 0.00 | 60 | 1004.2 |
| 20260504005202 | 7 | 269 | 3.2 | 4.8 | 0.00 | 0.00 | 0.00 | 59 | 1004.3 |
| 20260504004702 | 8 | 234 | 3.2 | 6.4 | 0.00 | 0.00 | 0.00 | 58 | 1004.2 |